Weather History for Berlin, NH

Change the Weather History Date:

Saturday, January 1, 2005

  Actual Average Record
Temperature  
Mean Temperature 34 °F -  
Max Temperature 48 °F 25 °F 48 °F (2005)
Min Temperature 17 °F 5 °F -18 °F (1998)
Degree Days  
Heating Degree Days 32    
Moisture  
Dew Point 25 °F    
Average Humidity 68    
Maximum Humidity 87    
Minimum Humidity 42    
Precipitation  
Precipitation 0.11 in - - ()
Sea Level Pressure  
Sea Level Pressure 30.20 in    
Wind  
Wind Speed 11 mph (WNW)    
Max Wind Speed 14 mph    
Max Gust Speed 26 mph    
Visibility 10 miles    
Events Rain    
Averages and records for this station are not official NWS values.
T = Trace of Precipitation, MM = Missing Value Source: NWS Daily Summary

Daily Weather History Graph

Daily Weather History Graph

Search for Another Location

Airport:

Trip Planner

Search our weather history database for the weather conditions in past years. The results will help you decide how hot, cold, wet, or windy it might be!

Date:

Astronomy

Jan. 01, 2005 Rise Set
Actual Time 7:21 AM EST 4:15 PM EST
Civil Twilight 6:48 AM EST 4:48 PM EST
Nautical Twilight 6:11 AM EST 5:25 PM EST
Astronomical Twilight 5:36 AM EST 6:01 PM EST
Moon 10:15 PM EST (1/1) 10:48 AM EST (1/1)
Length of Visible Light 10h 00m
Length of Day
8h 53m
Waning Gibbous, 70% of the Moon is Illuminated
Jan 1
Waning Gibbous
Jan 3
Last Quarter
Jan 10
New
Jan 17
First Quarter
Jan 25
Full

Hourly Weather History & Observations

Time (EST) Temp. Windchill Dew Point Humidity Pressure Visibility Wind Dir Wind Speed Gust Speed Precip Events Conditions
12:52 AM 48.9 °F - 39.0 °F 69% 29.94 in 10.0 mi WSW 13.8 mph 26.5 mph N/A   Scattered Clouds
1:52 AM 48.9 °F - 39.0 °F 69% 29.91 in 10.0 mi SW 10.4 mph 23.0 mph N/A   Mostly Cloudy
2:52 AM 48.9 °F - 37.9 °F 66% 29.90 in 10.0 mi WSW 10.4 mph 26.5 mph N/A   Overcast
3:52 AM 46.9 °F - 39.9 °F 77% 29.92 in 10.0 mi WSW 12.7 mph - 0.00 in Rain Light Rain
4:08 AM 44.6 °F 41.4 °F 41.0 °F 87% 29.89 in 2.5 mi Variable 5.8 mph 17.3 mph 0.04 in Rain Heavy Rain
4:16 AM 44.6 °F 41.4 °F 41.0 °F 87% 29.89 in 4.0 mi West 5.8 mph - 0.05 in Rain Light Rain
4:52 AM 45.0 °F 40.1 °F 39.9 °F 82% 29.92 in 10.0 mi WSW 9.2 mph - 0.05 in   Overcast
5:29 AM 42.8 °F 37.5 °F 39.2 °F 87% 29.91 in 9.0 mi NNW 9.2 mph - 0.00 in Rain Light Rain
5:52 AM 41.0 °F 35.8 °F 37.0 °F 86% 29.97 in 8.0 mi WNW 8.1 mph - 0.06 in Rain Light Rain
7:27 AM 37.4 °F 29.8 °F 30.2 °F 75% 30.02 in 10.0 mi NW 11.5 mph 20.7 mph N/A   Overcast
7:52 AM 37.9 °F 32.1 °F 30.0 °F 73% 30.06 in 10.0 mi NW 8.1 mph - N/A   Overcast
8:52 AM 37.0 °F 28.5 °F 28.0 °F 70% 30.10 in 10.0 mi WNW 13.8 mph 23.0 mph N/A   Overcast
9:19 AM 37.4 °F 30.8 °F 28.4 °F 70% 30.08 in 10.0 mi WNW 9.2 mph - N/A   Overcast
9:52 AM 37.0 °F 31.6 °F 28.0 °F 70% 30.14 in 10.0 mi WNW 6.9 mph - N/A   Overcast
10:52 AM 36.0 °F 28.0 °F 28.0 °F 73% 30.17 in 10.0 mi NW 11.5 mph 21.9 mph N/A   Overcast
11:42 AM 37.4 °F 28.9 °F 24.8 °F 60% 30.14 in 10.0 mi WNW 13.8 mph 25.3 mph N/A   Overcast
11:52 AM 37.0 °F 29.3 °F 25.0 °F 62% 30.17 in 10.0 mi NW 11.5 mph 18.4 mph N/A   Overcast
12:22 PM 35.6 °F 26.6 °F 24.8 °F 65% 30.16 in 10.0 mi WNW 13.8 mph 20.7 mph N/A   Overcast
12:52 PM 35.1 °F 26.4 °F 25.0 °F 67% 30.22 in 10.0 mi NW 12.7 mph 24.2 mph N/A   Overcast
1:52 PM 34.0 °F 24.6 °F 24.1 °F 67% 30.24 in 10.0 mi WNW 13.8 mph 23.0 mph N/A   Overcast
2:24 PM 33.8 °F 29.6 °F 24.8 °F 70% 30.25 in 10.0 mi Variable 4.6 mph - N/A   Overcast
2:52 PM 33.1 °F 24.9 °F 21.9 °F 64% 30.31 in 10.0 mi West 10.4 mph 21.9 mph N/A   Overcast
3:52 PM 32.0 °F 22.5 °F 24.1 °F 73% 30.35 in 9.0 mi West 12.7 mph 21.9 mph N/A   Overcast
4:38 PM 30.2 °F 21.9 °F 21.2 °F 69% 30.36 in 10.0 mi WNW 9.2 mph - N/A   Mostly Cloudy
4:52 PM 30.0 °F 25.2 °F 19.9 °F 66% 30.40 in 10.0 mi Variable 4.6 mph - N/A   Mostly Cloudy
5:52 PM 28.9 °F 21.9 °F 17.1 °F 61% 30.44 in 10.0 mi NW 6.9 mph - N/A   Scattered Clouds
6:52 PM 27.0 °F 16.7 °F 10.9 °F 51% 30.48 in 10.0 mi NNW 11.5 mph 18.4 mph N/A   Clear
7:52 PM 25.0 °F 15.5 °F 10.9 °F 55% 30.52 in 10.0 mi NNW 9.2 mph - N/A   Clear
8:52 PM 23.0 °F 12.4 °F 7.0 °F 50% 30.56 in 10.0 mi NNW 10.4 mph 17.3 mph N/A   Clear
9:52 PM 21.0 °F 8.6 °F 3.0 °F 46% 30.58 in 10.0 mi North 12.7 mph - N/A   Clear
10:52 PM 19.0 °F 7.5 °F -0.9 °F 42% 30.61 in 10.0 mi NNW 10.4 mph 17.3 mph N/A   Clear
11:52 PM 17.1 °F 6.6 °F 3.0 °F 54% 30.64 in 10.0 mi North 8.1 mph - N/A   Clear